This demonstration page uses our WeatherBlox Daily Observations layout. Learn more.

38.89511, -77.03637

Hourly Observations for June 15, 2020

Temp ( °F °C ) Dew Point ( °F °C ) Humidity (%) Winds ( mph kmh ) Pressure ( in mb ) Visibility ( mi km ) Precip ( " mm )
12:52 am 00:52 Mostly Cloudy 66 18.9 52 11.1 61 61 E 7 11 30.32 1027 10 16.0934 0 0
1:52 am 01:52 Mostly Cloudy 65 18.3 51 10.6 61 61 ENE 10 17 30.32 1027 10 16.0934 0 0
2:52 am 02:52 Mostly Cloudy 63 17.2 51 10.6 65 65 NE 7 11 30.32 1027 10 16.0934 0 0
3:52 am 03:52 Cloudy 64 17.8 53 11.7 68 68 NNE 8 13 30.33 1027 10 16.0934 0 0
4:52 am 04:52 Mostly Cloudy 63 17.2 54 12.2 73 73 NNE 10 17 30.34 1027 10 16.0934 0 0
5:52 am 05:52 Mostly Cloudy 63 17.2 54 12.2 73 73 NE 10 17 30.35 1028 10 16.0934 0 0
6:52 am 06:52 Mostly Cloudy 64 17.8 54 12.2 70 70 NE 9 15 30.35 1028 10 16.0934 0 0
7:52 am 07:52 Mostly Cloudy 66 18.9 55 12.8 68 68 NE 10 17 30.37 1028 10 16.0934 0 0
8:52 am 08:52 Mostly Cloudy 67 19.4 54 12.2 63 63 ENE 12 19 30.39 1029 10 16.0934 0 0
12:52 pm 12:52 Mostly Cloudy 76 24.4 53 11.7 45 45 ENE 15 24 30.35 1028 10 16.09 0 0
1:52 pm 13:52 Mostly Cloudy 77 25 52 11.1 42 42 E 13 21 30.34 1027 10 16.09 0 0
2:52 pm 14:52 Mostly Cloudy 77 25 51 10.6 40 40 E 13 21 30.33 1027 10 16.09 0 0
3:52 pm 15:52 Mostly Cloudy 77 25 51 10.6 40 40 E 11 18 30.32 1027 10 16.09 0 0
4:52 pm 16:52 Mostly Cloudy 77 25 52 11.1 42 42 ENE 11 18 30.32 1027 10 16.09 0 0
5:52 pm 17:52 Mostly Cloudy 76 24.4 52 11.1 43 43 E 11 18 30.31 1026 10 16.09 0 0
6:52 pm 18:52 Mostly Cloudy 75 23.9 53 11.7 46 46 NE 11 18 30.31 1026 10 16.09 0 0
7:52 pm 19:52 Mostly Cloudy 74 23.3 52 11.1 46 46 E 8 13 30.31 1026 10 16.0934 0 0
8:52 pm 20:52 Mostly Cloudy 72 22.2 55 12.8 55 55 ESE 13 20 30.32 1027 10 16.0934 0 0
9:52 pm 21:52 Mostly Cloudy 70 21.1 54 12.2 57 57 E 13 20 30.34 1028 10 16.0934 0 0
10:52 pm 22:52 Mostly Cloudy 69 20.6 53 11.7 57 57 ENE 8 13 30.35 1028 10 16.0934 0 0
11:52 pm 23:52 Cloudy 68 20 53 11.7 59 59 ENE 9 15 30.35 1028 10 16.0934 0 0

Powered by AerisWeather